Location: Pordenone
(45.9640°N, 12.6580°E)
Time: 02:16:25
(UTC+02:00)

ISS - Pass Details

Date: 20 May 2021
Orbit: 417 x 422 km, 51.6° (Epoch: 14 June)

Event Time Altitude Azimuth Distance (km) Brightness Sun altitude
Rises 01:19:42 0° 297° (WNW) 2,371 0.4 -24.0°
Reaches altitude 10° 01:21:49 10° 301° (WNW) 1,506 -0.6 -24.0°
Enters shadow 01:23:20 24° 308° (NW) 917 -1.8 -23.9°
